Location: New Plymouth
(39.0670°S, 174.0830°E)
Time: 13:45:16
(UTC+13:00)

ATLAS 3B R/B - Pass Details

Date: 24 January 2019
Orbit: 1028 x 1166 km, 63.8° (Epoch: 07 October)

Event Time Altitude Azimuth Distance (km) Brightness Sun altitude
Exits shadow 22:19:05 20° 68° (ENE) 2,354 3.9 -15.8°
Maximum altitude 22:19:38 20° 74° (ENE) 2,350 4.0 -15.9°
Drops below altitude 10° 22:24:37 10° 118° (ESE) 3,058 4.9 -16.6°
Sets 22:28:09 0° 133° (SE) 4,044 5.7 -17.1°
